Location: Bacharowice
(49.9333°N, 19.5833°E)
Time: 03:49:08
(UTC+00:00)

Cosmos 1242 Rocket - Pass Details

Date: 11 May 2021
Orbit: 446 x 484 km, 81.2° (Epoch: 22 June)

Event Time Altitude Azimuth Distance (km) Brightness Sun altitude
Rises 18:50:55 0° 178° (S) 2,511 5.8 -5.6°
Reaches altitude 10° 18:53:03 10° 174° (S) 1,632 4.8 -5.9°
Maximum altitude 18:56:31 51° 97° (E) 599 2.7 -6.3°
Drops below altitude 10° 18:59:58 10° 22° (NNE) 1,625 5.5 -6.7°
Sets 19:02:04 0° 17° (NNE) 2,499 6.5 -7.0°
